| time (UTC) | temp C | wind direction | speed KPH | gust KPH | rain 1hr cm | rain 24hr cm | rain mn cm | humidity % | barometer mb |
| 20260503032649 | 10 | 207 | 3.2 | 3.2 | 0.00 | 0.00 | 0.00 | 57 | 1012.4 |
| 20260503032148 | 10 | 254 | 0.0 | 3.2 | 0.00 | 0.00 | 0.00 | 52 | 1012.5 |
| 20260503031645 | 10 | 252 | 0.0 | 0.0 | 0.00 | 0.00 | 0.00 | 62 | 1012.4 |
| 20260503031143 | 9 | 259 | 0.0 | 0.0 | 0.00 | 0.00 | 0.00 | 57 | 1012.3 |
| 20260503030638 | 9 | 225 | 1.6 | 3.2 | 0.00 | 0.00 | 0.00 | 62 | 1012.6 |
| 20260503030135 | 9 | 223 | 1.6 | 3.2 | 0.00 | 0.00 | 0.00 | 64 | 1012.5 |
| 20260503025632 | 10 | 263 | 0.0 | 0.0 | 0.00 | 0.00 | 0.00 | 68 | 1012.6 |
| 20260503025130 | 10 | 274 | 0.0 | 0.0 | 0.00 | 0.00 | 0.00 | 61 | 1012.7 |
| 20260503024626 | 10 | 261 | 0.0 | 0.0 | 0.00 | 0.00 | 0.00 | 60 | 1012.6 |
| 20260503024123 | 10 | 248 | 0.0 | 1.6 | 0.00 | 0.00 | 0.00 | 60 | 1012.8 |
| 20260503023621 | 10 | 260 | 0.0 | 0.0 | 0.00 | 0.00 | 0.00 | 61 | 1012.8 |
| 20260503023118 | 10 | 253 | 0.0 | 0.0 | 0.00 | 0.00 | 0.00 | 59 | 1012.9 |
| 20260503022613 | 10 | 264 | 0.0 | 0.0 | 0.00 | 0.00 | 0.00 | 59 | 1013.0 |
| 20260503022108 | 10 | 265 | 0.0 | 0.0 | 0.00 | 0.00 | 0.00 | 60 | 1013.0 |
| 20260503021606 | 10 | 265 | 0.0 | 0.0 | 0.00 | 0.00 | 0.00 | 59 | 1012.8 |
| 20260503021102 | 10 | 265 | 0.0 | 0.0 | 0.00 | 0.00 | 0.00 | 57 | 1013.0 |
| 20260503020559 | 10 | 266 | 0.0 | 0.0 | 0.00 | 0.00 | 0.00 | 62 | 1013.1 |
| 20260503020056 | 10 | 257 | 0.0 | 0.0 | 0.00 | 0.00 | 0.00 | 66 | 1013.1 |
| 20260503015553 | 10 | 270 | 0.0 | 0.0 | 0.00 | 0.00 | 0.00 | 63 | 1013.0 |
| 20260503015050 | 11 | 269 | 0.0 | 0.0 | 0.00 | 0.00 | 0.00 | 63 | 1012.9 |
| 20260503014546 | 11 | 271 | 0.0 | 0.0 | 0.00 | 0.00 | 0.00 | 59 | 1013.1 |
| 20260503014044 | 11 | 271 | 0.0 | 0.0 | 0.00 | 0.00 | 0.00 | 53 | 1012.9 |
| 20260503013541 | 11 | 271 | 0.0 | 0.0 | 0.00 | 0.00 | 0.00 | 58 | 1012.9 |
| 20260503013039 | 11 | 279 | 0.0 | 0.0 | 0.00 | 0.00 | 0.00 | 51 | 1013.1 |
| 20260503012536 | 11 | 280 | 0.0 | 0.0 | 0.00 | 0.00 | 0.00 | 49 | 1013.1 |
| 20260503012032 | 12 | 279 | 0.0 | 0.0 | 0.00 | 0.00 | 0.00 | 49 | 1013.1 |
| 20260503011529 | 12 | 279 | 0.0 | 0.0 | 0.00 | 0.00 | 0.00 | 48 | 1013.2 |
| 20260503011026 | 12 | 280 | 0.0 | 0.0 | 0.00 | 0.00 | 0.00 | 44 | 1013.0 |
| 20260503010522 | 12 | 279 | 0.0 | 0.0 | 0.00 | 0.00 | 0.00 | 45 | 1013.1 |
| 20260503010020 | 12 | 236 | 0.0 | 1.6 | 0.00 | 0.00 | 0.00 | 45 | 1013.1 |
| 20260503005517 | 12 | 270 | 0.0 | 0.0 | 0.00 | 0.00 | 0.00 | 44 | 1013.2 |
| 20260503005014 | 12 | 252 | 1.6 | 1.6 | 0.00 | 0.00 | 0.00 | 43 | 1013.2 |
| 20260503004510 | 12 | 291 | 0.0 | 1.6 | 0.00 | 0.00 | 0.00 | 41 | 1013.3 |
| 20260503004008 | 12 | 282 | 0.0 | 0.0 | 0.00 | 0.00 | 0.00 | 43 | 1013.1 |
| 20260503003505 | 13 | 299 | 0.0 | 1.6 | 0.00 | 0.00 | 0.00 | 43 | 1013.4 |
| 20260503003002 | 13 | 325 | 0.0 | 6.4 | 0.00 | 0.00 | 0.00 | 42 | 1013.4 |
| 20260503002459 | 13 | 291 | 0.0 | 1.6 | 0.00 | 0.00 | 0.00 | 41 | 1013.4 |
| 20260503001955 | 13 | 310 | 1.6 | 3.2 | 0.00 | 0.00 | 0.00 | 40 | 1013.3 |
| 20260503001452 | 13 | 278 | 0.0 | 0.0 | 0.00 | 0.00 | 0.00 | 41 | 1013.4 |
| 20260503000949 | 13 | 302 | 1.6 | 1.6 | 0.00 | 0.00 | 0.00 | 39 | 1013.6 |
| 20260503000446 | 13 | 304 | 0.0 | 0.0 | 0.00 | 0.00 | 0.00 | 41 | 1013.6 |
| 20260502235944 | 13 | 292 | 0.0 | 1.6 | 0.00 | 0.00 | 0.00 | 40 | 1013.5 |
| 20260502235440 | 13 | 267 | 0.0 | 0.0 | 0.00 | 0.00 | 0.00 | 41 | 1013.7 |
| 20260502234938 | 13 | 298 | 1.6 | 3.2 | 0.00 | 0.00 | 0.00 | 37 | 1013.8 |
| 20260502234434 | 13 | 129 | 3.2 | 4.8 | 0.00 | 0.00 | 0.00 | 36 | 1013.7 |
| 20260502233932 | 13 | 333 | 1.6 | 3.2 | 0.00 | 0.00 | 0.00 | 41 | 1013.6 |
| 20260502233426 | 13 | 286 | 0.0 | 1.6 | 0.00 | 0.00 | 0.00 | 37 | 1013.7 |
| 20260502232924 | 13 | 135 | 4.8 | 6.4 | 0.00 | 0.00 | 0.00 | 33 | 1013.7 |
| 20260502232420 | 13 | 289 | 1.6 | 6.4 | 0.00 | 0.00 | 0.00 | 34 | 1013.6 |
| 20260502231917 | 13 | 97 | 4.8 | 6.4 | 0.00 | 0.00 | 0.00 | 34 | 1013.6 |
| 20260502231414 | 13 | 193 | 3.2 | 6.4 | 0.00 | 0.00 | 0.00 | 34 | 1013.9 |
| 20260502230913 | 14 | 340 | 0.0 | 4.8 | 0.00 | 0.00 | 0.00 | 32 | 1013.8 |
| 20260502230410 | 14 | 271 | 1.6 | 4.8 | 0.00 | 0.00 | 0.00 | 37 | 1014.0 |
| 20260502225908 | 15 | 187 | 4.8 | 4.8 | 0.00 | 0.00 | 0.00 | 33 | 1013.9 |
| 20260502225404 | 14 | 272 | 0.0 | 1.6 | 0.00 | 0.00 | 0.00 | 33 | 1013.9 |
| 20260502224901 | 14 | 171 | 3.2 | 4.8 | 0.00 | 0.00 | 0.00 | 36 | 1014.1 |
| 20260502224356 | 13 | 274 | 0.0 | 3.2 | 0.00 | 0.00 | 0.00 | 33 | 1014.2 |
| 20260502223854 | 13 | 333 | 0.0 | 3.2 | 0.00 | 0.00 | 0.00 | 35 | 1014.2 |
| 20260502223352 | 13 | 279 | 0.0 | 6.4 | 0.00 | 0.00 | 0.00 | 32 | 1014.1 |
| 20260502222850 | 14 | 294 | 1.6 | 3.2 | 0.00 | 0.00 | 0.00 | 32 | 1014.3 |
| 20260502222348 | 14 | 271 | 0.0 | 3.2 | 0.00 | 0.00 | 0.00 | 32 | 1014.1 |
| 20260502221843 | 14 | 283 | 0.0 | 4.8 | 0.00 | 0.00 | 0.00 | 31 | 1014.2 |
| 20260502221339 | 15 | 261 | 1.6 | 3.2 | 0.00 | 0.00 | 0.00 | 30 | 1014.4 |
| 20260502220837 | 15 | 90 | 3.2 | 4.8 | 0.00 | 0.00 | 0.00 | 34 | 1014.3 |
| 20260502220332 | 14 | 290 | 0.0 | 4.8 | 0.00 | 0.00 | 0.00 | 32 | 1014.4 |
| 20260502215829 | 14 | 307 | 3.2 | 3.2 | 0.00 | 0.00 | 0.00 | 29 | 1014.2 |
| 20260502215327 | 14 | 266 | 1.6 | 1.6 | 0.00 | 0.00 | 0.00 | 32 | 1014.3 |
| 20260502214823 | 14 | 273 | 1.6 | 1.6 | 0.00 | 0.00 | 0.00 | 32 | 1014.4 |
| 20260502214320 | 13 | 309 | 1.6 | 3.2 | 0.00 | 0.00 | 0.00 | 32 | 1014.6 |
| 20260502213817 | 14 | 269 | 1.6 | 3.2 | 0.00 | 0.00 | 0.00 | 30 | 1014.4 |
| 20260502213314 | 14 | 298 | 1.6 | 9.7 | 0.00 | 0.00 | 0.00 | 32 | 1014.6 |
| 20260502212813 | 15 | 294 | 0.0 | 3.2 | 0.00 | 0.00 | 0.00 | 31 | 1014.6 |
| 20260502212311 | 15 | 276 | 3.2 | 11.3 | 0.00 | 0.00 | 0.00 | 28 | 1014.7 |
| 20260502211808 | 15 | 261 | 1.6 | 3.2 | 0.00 | 0.00 | 0.00 | 30 | 1014.4 |
| 20260502211258 | 15 | 237 | 1.6 | 4.8 | 0.00 | 0.00 | 0.00 | 28 | 1014.7 |
| 20260502210755 | 15 | 7 | 1.6 | 6.4 | 0.00 | 0.00 | 0.00 | 30 | 1014.6 |
| 20260502210253 | 15 | 313 | 3.2 | 11.3 | 0.00 | 0.00 | 0.00 | 30 | 1014.9 |
| 20260502205750 | 15 | 160 | 3.2 | 9.7 | 0.00 | 0.00 | 0.00 | 31 | 1014.8 |
| 20260502205246 | 13 | 125 | 3.2 | 9.7 | 0.00 | 0.00 | 0.00 | 34 | 1015.0 |
| 20260502204743 | 14 | 260 | 1.6 | 9.7 | 0.00 | 0.00 | 0.00 | 30 | 1015.0 |
| 20260502204240 | 15 | 246 | 3.2 | 4.8 | 0.00 | 0.00 | 0.00 | 28 | 1015.1 |
| 20260502203738 | 15 | 319 | 3.2 | 3.2 | 0.00 | 0.00 | 0.00 | 30 | 1015.0 |
| 20260502203236 | 14 | 262 | 3.2 | 4.8 | 0.00 | 0.00 | 0.00 | 29 | 1015.2 |
| 20260502202735 | 14 | 276 | 1.6 | 6.4 | 0.00 | 0.00 | 0.00 | 29 | 1015.3 |
| 20260502202234 | 14 | 179 | 4.8 | 6.4 | 0.00 | 0.00 | 0.00 | 29 | 1015.2 |
| 20260502201731 | 14 | 146 | 4.8 | 6.4 | 0.00 | 0.00 | 0.00 | 28 | 1015.5 |
| 20260502201227 | 14 | 76 | 6.4 | 12.9 | 0.00 | 0.00 | 0.00 | 28 | 1015.5 |
| 20260502200723 | 13 | 296 | 1.6 | 4.8 | 0.00 | 0.00 | 0.00 | 30 | 1015.6 |
| 20260502200220 | 13 | 268 | 0.0 | 4.8 | 0.00 | 0.00 | 0.00 | 33 | 1015.7 |
| 20260502195719 | 13 | 294 | 0.0 | 4.8 | 0.00 | 0.00 | 0.00 | 32 | 1015.9 |
| 20260502195215 | 13 | 211 | 3.2 | 12.9 | 0.00 | 0.00 | 0.00 | 32 | 1015.8 |
| 20260502194711 | 13 | 164 | 3.2 | 4.8 | 0.00 | 0.00 | 0.00 | 29 | 1015.9 |
| 20260502194209 | 13 | 309 | 1.6 | 3.2 | 0.00 | 0.00 | 0.00 | 29 | 1016.3 |
| 20260502193659 | 13 | 269 | 1.6 | 3.2 | 0.00 | 0.00 | 0.00 | 28 | 1016.3 |
| 20260502193156 | 13 | 262 | 0.0 | 4.8 | 0.00 | 0.00 | 0.00 | 30 | 1016.5 |
| 20260502192651 | 13 | 282 | 3.2 | 6.4 | 0.00 | 0.00 | 0.00 | 28 | 1016.4 |
| 20260502192149 | 13 | 354 | 1.6 | 4.8 | 0.00 | 0.00 | 0.00 | 34 | 1016.5 |
| 20260502191646 | 13 | 359 | 1.6 | 3.2 | 0.00 | 0.00 | 0.00 | 27 | 1016.5 |
| 20260502191143 | 13 | 137 | 0.0 | 6.4 | 0.00 | 0.00 | 0.00 | 32 | 1017.0 |
| 20260502190640 | 13 | 277 | 0.0 | 6.4 | 0.00 | 0.00 | 0.00 | 34 | 1016.7 |
| 20260502190138 | 13 | 258 | 1.6 | 3.2 | 0.00 | 0.00 | 0.00 | 30 | 1017.0 |
| 20260502185632 | 13 | 328 | 0.0 | 4.8 | 0.00 | 0.00 | 0.00 | 29 | 1016.9 |
| 20260502185130 | 13 | 284 | 3.2 | 6.4 | 0.00 | 0.00 | 0.00 | 28 | 1017.2 |
| 20260502184626 | 14 | 280 | 1.6 | 6.4 | 0.00 | 0.00 | 0.00 | 25 | 1017.1 |
| 20260502184121 | 14 | 308 | 4.8 | 6.4 | 0.00 | 0.00 | 0.00 | 28 | 1017.1 |
| 20260502183617 | 13 | 310 | 3.2 | 4.8 | 0.00 | 0.00 | 0.00 | 30 | 1017.0 |
| 20260502183114 | 13 | 301 | 3.2 | 9.7 | 0.00 | 0.00 | 0.00 | 30 | 1017.2 |
| 20260502182609 | 13 | 271 | 1.6 | 4.8 | 0.00 | 0.00 | 0.00 | 27 | 1017.3 |
| 20260502182105 | 12 | 43 | 3.2 | 9.7 | 0.00 | 0.00 | 0.00 | 43 | 1017.4 |
| 20260502181603 | 12 | 274 | 0.0 | 0.0 | 0.00 | 0.00 | 0.00 | 36 | 1017.4 |
| 20260502181102 | 12 | 105 | 4.8 | 4.8 | 0.00 | 0.00 | 0.00 | 34 | 1017.5 |
| 20260502180559 | 13 | 338 | 1.6 | 4.8 | 0.00 | 0.00 | 0.00 | 31 | 1017.7 |
| 20260502170511 | 12 | 288 | 1.6 | 3.2 | 0.00 | 0.00 | 0.00 | 28 | 1018.5 |
| 20260502163955 | 12 | 297 | 4.8 | 6.4 | 0.00 | 0.00 | 0.00 | 33 | 1018.7 |
| 20260502163450 | 12 | 359 | 3.2 | 6.4 | 0.00 | 0.00 | 0.00 | 30 | 1018.8 |
| 20260502162948 | 11 | 153 | 3.2 | 4.8 | 0.00 | 0.00 | 0.00 | 38 | 1018.7 |
| 20260502162445 | 11 | 315 | 1.6 | 4.8 | 0.00 | 0.00 | 0.00 | 33 | 1019.0 |
| 20260502161942 | 12 | 307 | 0.0 | 3.2 | 0.00 | 0.00 | 0.00 | 31 | 1019.2 |
| 20260502161438 | 11 | 306 | 3.2 | 3.2 | 0.00 | 0.00 | 0.00 | 33 | 1019.3 |
| 20260502160936 | 11 | 309 | 1.6 | 3.2 | 0.00 | 0.00 | 0.00 | 35 | 1019.2 |
| 20260502160434 | 11 | 264 | 1.6 | 11.3 | 0.00 | 0.00 | 0.00 | 36 | 1019.3 |
| 20260502151913 | 10 | 268 | 1.6 | 3.2 | 0.00 | 0.00 | 0.00 | 39 | 1019.6 |
| 20260502151409 | 10 | 274 | 3.2 | 3.2 | 0.00 | 0.00 | 0.00 | 39 | 1019.6 |
| 20260502150907 | 10 | 328 | 1.6 | 4.8 | 0.00 | 0.00 | 0.00 | 35 | 1019.7 |
| 20260502150403 | 9 | 220 | 1.6 | 3.2 | 0.00 | 0.00 | 0.00 | 39 | 1019.8 |
| 20260502130248 | 3 | 260 | 0.0 | 3.2 | 0.00 | 0.00 | 0.00 | 62 | 1020.6 |
| 20260502123735 | 0 | 203 | 3.2 | 3.2 | 0.00 | 0.00 | 0.00 | 72 | 1020.8 |
| 20260502123232 | 0 | 267 | 0.0 | 0.0 | 0.00 | 0.00 | 0.00 | 78 | 1020.9 |
| 20260502122728 | 0 | 286 | 0.0 | 0.0 | 0.00 | 0.00 | 0.00 | 86 | 1020.8 |
| 20260502122224 | -1 | 286 | 0.0 | 0.0 | 0.00 | 0.00 | 0.00 | 89 | 1020.6 |
| 20260502121723 | -1 | 286 | 0.0 | 0.0 | 0.00 | 0.00 | 0.00 | 90 | 1020.7 |
| 20260502121221 | -1 | 286 | 0.0 | 0.0 | 0.00 | 0.00 | 0.00 | 91 | 1020.7 |
| 20260502120717 | -2 | 286 | 0.0 | 0.0 | 0.00 | 0.00 | 0.00 | 92 | 1020.7 |
| 20260502120213 | -2 | 286 | 0.0 | 0.0 | 0.00 | 0.00 | 0.00 | 93 | 1020.8 |
| 20260502115711 | -2 | 286 | 0.0 | 0.0 | 0.00 | 0.00 | 0.00 | 92 | 1020.7 |
| 20260502115208 | -2 | 286 | 0.0 | 0.0 | 0.00 | 0.00 | 0.00 | 93 | 1020.6 |
| 20260502114704 | -2 | 286 | 0.0 | 0.0 | 0.00 | 0.00 | 0.00 | 93 | 1020.8 |
| 20260502114201 | -3 | 286 | 0.0 | 0.0 | 0.00 | 0.00 | 0.00 | 94 | 1020.8 |
| 20260502113658 | -3 | 286 | 0.0 | 0.0 | 0.00 | 0.00 | 0.00 | 94 | 1020.8 |
| 20260502113156 | -3 | 286 | 0.0 | 0.0 | 0.00 | 0.00 | 0.00 | 94 | 1020.9 |
| 20260502112654 | -3 | 286 | 0.0 | 0.0 | 0.00 | 0.00 | 0.00 | 95 | 1020.8 |
| 20260502112151 | -3 | 286 | 0.0 | 0.0 | 0.00 | 0.00 | 0.00 | 95 | 1020.7 |
| 20260502111648 | -3 | 286 | 0.0 | 0.0 | 0.00 | 0.00 | 0.00 | 95 | 1020.6 |
| 20260502111146 | -3 | 286 | 0.0 | 0.0 | 0.00 | 0.00 | 0.00 | 94 | 1020.6 |
| 20260502110644 | -3 | 286 | 0.0 | 0.0 | 0.00 | 0.00 | 0.00 | 95 | 1020.6 |
| 20260502110140 | -3 | 286 | 0.0 | 0.0 | 0.00 | 0.00 | 0.00 | 95 | 1020.6 |
| 20260502105638 | -3 | 286 | 0.0 | 0.0 | 0.00 | 0.00 | 0.00 | 95 | 1020.6 |
| 20260502105135 | -3 | 286 | 0.0 | 0.0 | 0.00 | 0.00 | 0.00 | 95 | 1020.8 |
| 20260502104632 | -3 | 286 | 0.0 | 0.0 | 0.00 | 0.00 | 0.00 | 95 | 1020.7 |
| 20260502104129 | -3 | 286 | 0.0 | 0.0 | 0.00 | 0.00 | 0.00 | 96 | 1020.7 |
| 20260502103626 | -3 | 286 | 0.0 | 0.0 | 0.00 | 0.00 | 0.00 | 96 | 1020.8 |
| 20260502103124 | -3 | 286 | 0.0 | 0.0 | 0.00 | 0.00 | 0.00 | 95 | 1020.8 |
| 20260502102621 | -3 | 286 | 0.0 | 0.0 | 0.00 | 0.00 | 0.00 | 94 | 1021.0 |
| 20260502102112 | -3 | 286 | 0.0 | 0.0 | 0.00 | 0.00 | 0.00 | 94 | 1020.8 |
| 20260502101610 | -3 | 286 | 0.0 | 0.0 | 0.00 | 0.00 | 0.00 | 94 | 1020.8 |
| 20260502101108 | -3 | 286 | 0.0 | 0.0 | 0.00 | 0.00 | 0.00 | 94 | 1020.9 |
| 20260502100607 | -3 | 286 | 0.0 | 0.0 | 0.00 | 0.00 | 0.00 | 94 | 1020.9 |
| 20260502100105 | -3 | 286 | 0.0 | 0.0 | 0.00 | 0.00 | 0.00 | 94 | 1020.9 |
| 20260502091038 | -3 | 287 | 0.0 | 0.0 | 0.00 | 0.00 | 0.00 | 94 | 1020.8 |
| 20260502090535 | -3 | 287 | 0.0 | 0.0 | 0.00 | 0.00 | 0.00 | 93 | 1020.9 |
| 20260502071429 | -2 | 287 | 0.0 | 0.0 | 0.00 | 0.00 | 0.00 | 89 | 1021.1 |
| 20260502070927 | -2 | 287 | 0.0 | 0.0 | 0.00 | 0.00 | 0.00 | 88 | 1021.3 |
| 20260502070425 | -2 | 287 | 0.0 | 0.0 | 0.00 | 0.00 | 0.00 | 88 | 1021.6 |
| 20260502065923 | -2 | 287 | 0.0 | 0.0 | 0.00 | 0.00 | 0.00 | 87 | 1021.2 |
| 20260502065422 | -2 | 287 | 0.0 | 0.0 | 0.00 | 0.00 | 0.00 | 88 | 1021.3 |
| 20260502064919 | -2 | 287 | 0.0 | 0.0 | 0.00 | 0.00 | 0.00 | 88 | 1021.3 |
| 20260502064417 | -2 | 287 | 0.0 | 0.0 | 0.00 | 0.00 | 0.00 | 88 | 1021.5 |
| 20260502063914 | -2 | 286 | 0.0 | 0.0 | 0.00 | 0.00 | 0.00 | 87 | 1021.5 |
| 20260502063411 | -2 | 287 | 0.0 | 0.0 | 0.00 | 0.00 | 0.00 | 88 | 1021.7 |
| 20260502062909 | -2 | 287 | 0.0 | 0.0 | 0.00 | 0.00 | 0.00 | 88 | 1021.6 |
| 20260502062406 | -2 | 287 | 0.0 | 0.0 | 0.00 | 0.00 | 0.00 | 87 | 1021.6 |
| 20260502061905 | -2 | 287 | 0.0 | 0.0 | 0.00 | 0.00 | 0.00 | 87 | 1021.7 |
| 20260502061402 | -2 | 287 | 0.0 | 0.0 | 0.00 | 0.00 | 0.00 | 87 | 1021.7 |
| 20260502060858 | -1 | 287 | 0.0 | 0.0 | 0.00 | 0.00 | 0.00 | 87 | 1021.6 |
| 20260502060353 | -1 | 287 | 0.0 | 0.0 | 0.00 | 0.00 | 0.00 | 87 | 1021.6 |
| 20260502055851 | -1 | 287 | 0.0 | 0.0 | 0.00 | 0.00 | 0.00 | 87 | 1021.5 |
| 20260502055348 | -1 | 287 | 0.0 | 0.0 | 0.00 | 0.00 | 0.00 | 87 | 1021.6 |
| 20260502054848 | -1 | 286 | 0.0 | 0.0 | 0.00 | 0.00 | 0.00 | 86 | 1021.6 |
| 20260502054345 | -1 | 286 | 0.0 | 0.0 | 0.00 | 0.00 | 0.00 | 86 | 1021.6 |
| 20260502053842 | -1 | 287 | 0.0 | 0.0 | 0.00 | 0.00 | 0.00 | 86 | 1021.5 |
| 20260502053339 | -1 | 287 | 0.0 | 0.0 | 0.00 | 0.00 | 0.00 | 86 | 1021.7 |
| 20260502052837 | -1 | 287 | 0.0 | 0.0 | 0.00 | 0.00 | 0.00 | 85 | 1021.6 |
| 20260502052335 | -1 | 287 | 0.0 | 0.0 | 0.00 | 0.00 | 0.00 | 85 | 1021.6 |
| 20260502051832 | -1 | 287 | 0.0 | 0.0 | 0.00 | 0.00 | 0.00 | 85 | 1021.5 |
| 20260502051331 | -1 | 286 | 0.0 | 0.0 | 0.00 | 0.00 | 0.00 | 84 | 1021.6 |
| 20260502050827 | -1 | 286 | 0.0 | 0.0 | 0.00 | 0.00 | 0.00 | 83 | 1021.5 |
| 20260502050323 | -1 | 286 | 0.0 | 0.0 | 0.00 | 0.00 | 0.00 | 83 | 1021.6 |
| 20260502045821 | -1 | 286 | 0.0 | 0.0 | 0.00 | 0.00 | 0.00 | 82 | 1021.6 |
| 20260502045317 | -1 | 286 | 0.0 | 0.0 | 0.00 | 0.00 | 0.00 | 82 | 1021.6 |
| 20260502044814 | -1 | 286 | 0.0 | 0.0 | 0.00 | 0.00 | 0.00 | 81 | 1021.3 |
| 20260502044310 | -1 | 286 | 0.0 | 0.0 | 0.00 | 0.00 | 0.00 | 80 | 1021.6 |
| 20260502043808 | -1 | 287 | 0.0 | 0.0 | 0.00 | 0.00 | 0.00 | 83 | 1021.6 |
| 20260502043305 | -1 | 287 | 0.0 | 0.0 | 0.00 | 0.00 | 0.00 | 80 | 1021.5 |
| 20260502042804 | -1 | 287 | 0.0 | 0.0 | 0.00 | 0.00 | 0.00 | 81 | 1021.6 |
| 20260502042305 | 0 | 287 | 0.0 | 0.0 | 0.00 | 0.00 | 0.00 | 79 | 1021.5 |
| 20260502041800 | 0 | 287 | 0.0 | 0.0 | 0.00 | 0.00 | 0.00 | 79 | 1021.7 |
| 20260502041257 | 0 | 287 | 0.0 | 0.0 | 0.00 | 0.00 | 0.00 | 78 | 1021.5 |
| 20260502040754 | 0 | 286 | 0.0 | 0.0 | 0.00 | 0.00 | 0.00 | 77 | 1021.6 |
| 20260502040251 | 0 | 286 | 0.0 | 0.0 | 0.00 | 0.00 | 0.00 | 78 | 1021.6 |
| 20260502035746 | 0 | 286 | 0.0 | 0.0 | 0.00 | 0.00 | 0.00 | 77 | 1021.7 |
| 20260502035244 | 0 | 286 | 0.0 | 0.0 | 0.00 | 0.00 | 0.00 | 75 | 1021.8 |
| 20260502034741 | 0 | 286 | 0.0 | 0.0 | 0.00 | 0.00 | 0.00 | 75 | 1021.7 |
| 20260502034239 | 0 | 286 | 0.0 | 0.0 | 0.00 | 0.00 | 0.00 | 75 | 1021.8 |
| 20260502033737 | 0 | 286 | 0.0 | 0.0 | 0.00 | 0.00 | 0.00 | 72 | 1021.5 |
| 20260502033234 | 0 | 286 | 0.0 | 0.0 | 0.00 | 0.00 | 0.00 | 70 | 1021.8 |